Wetterdaten: Dienstag, 02.06.2015
Datum Zeit Auen-Temp. Temp gefhlt Luftfeuchte Luftdruck Regen Wind Richtung Richtung Taupunkt Windben
02.06.2015 00:00 12,7 C 12,6 C 88 % 1017,8 hPa 0,7 mm 0,0 km/h (0 Bft) O 90 10,8 C 0,0 km/h (0 Bft)
02.06.2015 00:05 12,7 C 12,6 C 88 % 1017,8 hPa 0,0 mm 0,0 km/h (0 Bft) O-SO 112 10,8 C 0,0 km/h (0 Bft)
02.06.2015 00:10 12,6 C 12,5 C 88 % 1017,8 hPa 0,7 mm 0,0 km/h (0 Bft) O-NO 67 10,7 C 0,0 km/h (0 Bft)
02.06.2015 00:15 12,6 C 12,5 C 88 % 1017,8 hPa 0,0 mm 0,0 km/h (0 Bft) N-NO 22 10,7 C 0,0 km/h (0 Bft)
02.06.2015 00:20 12,6 C 12,5 C 88 % 1017,8 hPa 0,0 mm 0,0 km/h (0 Bft) O-NO 67 10,7 C 0,0 km/h (0 Bft)
02.06.2015 00:25 12,6 C 12,5 C 88 % 1017,8 hPa 0,0 mm 0,0 km/h (0 Bft) O-NO 67 10,7 C 0,0 km/h (0 Bft)
02.06.2015 00:30 12,6 C 12,5 C 88 % 1017,8 hPa 0,0 mm 0,0 km/h (0 Bft) O-SO 112 10,7 C 0,0 km/h (0 Bft)
02.06.2015 00:35 12,6 C 12,5 C 89 % 1017,8 hPa 0,0 mm 0,0 km/h (0 Bft) O-SO 112 10,8 C 0,0 km/h (0 Bft)
02.06.2015 00:40 12,6 C 12,5 C 89 % 1017,4 hPa 0,0 mm 0,0 km/h (0 Bft) O 90 10,8 C 0,0 km/h (0 Bft)
02.06.2015 00:45 12,5 C 12,4 C 89 % 1017,4 hPa 0,0 mm 0,0 km/h (0 Bft) O 90 10,7 C 0,0 km/h (0 Bft)
02.06.2015 00:50 12,7 C 12,6 C 89 % 1017,4 hPa 0,0 mm 1,6 km/h (1 Bft) O-NO 67 10,9 C 4,4 km/h (1 Bft)
02.06.2015 00:55 12,7 C 12,6 C 90 % 1017,4 hPa 0,0 mm 3,1 km/h (1 Bft) N-NO 22 11,1 C 6,5 km/h (2 Bft)
02.06.2015 01:00 12,7 C 12,6 C 90 % 1017,7 hPa 0,0 mm 4,1 km/h (1 Bft) NO 45 11,1 C 6,7 km/h (2 Bft)
02.06.2015 01:05 12,6 C 12,5 C 91 % 1017,7 hPa 0,0 mm 5,4 km/h (1 Bft) NO 45 11,2 C 10,6 km/h (2 Bft)
02.06.2015 01:10 12,6 C 12,5 C 91 % 1017,7 hPa 0,0 mm 6,5 km/h (2 Bft) NO 45 11,2 C 4,1 km/h (1 Bft)
02.06.2015 01:15 12,5 C 12,4 C 90 % 1017,7 hPa 0,0 mm 5,7 km/h (1 Bft) O-NO 67 10,9 C 14,8 km/h (3 Bft)
02.06.2015 01:20 12,5 C 12,4 C 91 % 1017,9 hPa 0,0 mm 5,4 km/h (1 Bft) N-NO 22 11,1 C 3,4 km/h (1 Bft)
02.06.2015 01:25 12,5 C 12,4 C 91 % 1017,9 hPa 0,0 mm 3,4 km/h (1 Bft) O-NO 67 11,1 C 0,0 km/h (0 Bft)
02.06.2015 01:30 12,5 C 12,4 C 91 % 1017,9 hPa 0,0 mm 0,8 km/h (0 Bft) O-NO 67 11,1 C 0,0 km/h (0 Bft)
02.06.2015 01:35 12,4 C 12,3 C 91 % 1017,9 hPa 0,0 mm 0,3 km/h (0 Bft) O 90 11,0 C 0,0 km/h (0 Bft)
02.06.2015 01:40 12,4 C 12,3 C 91 % 1017,9 hPa 0,0 mm 0,3 km/h (0 Bft) NO 45 11,0 C 0,0 km/h (0 Bft)
02.06.2015 01:45 12,4 C 12,3 C 91 % 1017,9 hPa 0,0 mm 1,6 km/h (1 Bft) NO 45 11,0 C 6,7 km/h (2 Bft)
02.06.2015 01:50 12,4 C 12,3 C 91 % 1017,9 hPa 0,0 mm 4,4 km/h (1 Bft) O-NO 67 11,0 C 4,4 km/h (1 Bft)
02.06.2015 01:55 12,4 C 12,3 C 91 % 1017,9 hPa 0,0 mm 5,2 km/h (1 Bft) O-NO 67 11,0 C 4,1 km/h (1 Bft)
02.06.2015 02:00 12,4 C 12,3 C 91 % 1017,9 hPa 0,0 mm 3,9 km/h (1 Bft) O-NO 67 11,0 C 3,9 km/h (1 Bft)
02.06.2015 02:05 12,4 C 12,3 C 91 % 1017,9 hPa 0,0 mm 2,8 km/h (1 Bft) NO 45 11,0 C 0,0 km/h (0 Bft)
02.06.2015 02:10 12,4 C 12,3 C 91 % 1017,9 hPa 0,0 mm 1,3 km/h (1 Bft) N-NO 22 11,0 C 0,0 km/h (0 Bft)
02.06.2015 02:15 12,3 C 12,2 C 91 % 1017,9 hPa 0,0 mm 0,5 km/h (0 Bft) O-SO 112 10,9 C 0,0 km/h (0 Bft)
02.06.2015 02:20 12,2 C 12,1 C 90 % 1017,9 hPa 0,0 mm 0,0 km/h (0 Bft) O-SO 112 10,6 C 0,0 km/h (0 Bft)
02.06.2015 02:25 12,2 C 12,1 C 90 % 1017,9 hPa 0,0 mm 0,0 km/h (0 Bft) S 180 10,6 C 0,0 km/h (0 Bft)
02.06.2015 02:30 12,2 C 12,1 C 90 % 1017,9 hPa 0,0 mm 0,0 km/h (0 Bft) SO 135 10,6 C 0,0 km/h (0 Bft)
02.06.2015 02:35 12,2 C 12,1 C 90 % 1017,9 hPa 0,0 mm 0,0 km/h (0 Bft) S-SO 157 10,6 C 0,0 km/h (0 Bft)
02.06.2015 02:40 12,2 C 12,1 C 90 % 1018,0 hPa 0,0 mm 0,0 km/h (0 Bft) S 180 10,6 C 0,0 km/h (0 Bft)
02.06.2015 02:45 12,2 C 12,1 C 90 % 1018,0 hPa 0,0 mm 0,3 km/h (0 Bft) S-SO 157 10,6 C 0,0 km/h (0 Bft)
02.06.2015 02:50 12,2 C 12,1 C 91 % 1018,0 hPa 0,0 mm 1,3 km/h (1 Bft) S-SW 202 10,8 C 2,6 km/h (1 Bft)
02.06.2015 02:55 12,2 C 12,1 C 91 % 1018,0 hPa 0,0 mm 1,0 km/h (0 Bft) SW 225 10,8 C 0,0 km/h (0 Bft)
02.06.2015 03:00 12,2 C 12,1 C 91 % 1017,9 hPa 0,0 mm 0,3 km/h (0 Bft) S-SO 157 10,8 C 0,0 km/h (0 Bft)
02.06.2015 03:05 12,1 C 12,0 C 90 % 1017,9 hPa 0,0 mm 0,0 km/h (0 Bft) S-SO 157 10,5 C 0,0 km/h (0 Bft)
02.06.2015 03:10 12,2 C 12,1 C 90 % 1017,9 hPa 0,0 mm 0,0 km/h (0 Bft) SO 135 10,6 C 0,0 km/h (0 Bft)
02.06.2015 03:15 12,1 C 12,0 C 90 % 1017,9 hPa 0,0 mm 0,0 km/h (0 Bft) SO 135 10,5 C 0,0 km/h (0 Bft)
02.06.2015 03:20 12,0 C 11,9 C 90 % 1017,9 hPa 0,0 mm 0,0 km/h (0 Bft) SO 135 10,4 C 0,0 km/h (0 Bft)
02.06.2015 03:25 12,0 C 11,9 C 90 % 1017,9 hPa 0,0 mm 0,0 km/h (0 Bft) SO 135 10,4 C 0,0 km/h (0 Bft)
02.06.2015 03:30 11,9 C 11,8 C 90 % 1017,9 hPa 0,0 mm 0,0 km/h (0 Bft) SO 135 10,3 C 0,0 km/h (0 Bft)
02.06.2015 03:35 11,8 C 11,7 C 90 % 1017,9 hPa 0,7 mm 0,0 km/h (0 Bft) W-SW 247 10,2 C 0,0 km/h (0 Bft)
02.06.2015 03:40 11,9 C 11,8 C 90 % 1017,7 hPa 0,0 mm 0,0 km/h (0 Bft) W-SW 247 10,3 C 0,0 km/h (0 Bft)
02.06.2015 03:45 11,8 C 11,7 C 90 % 1017,7 hPa 0,0 mm 0,0 km/h (0 Bft) W-SW 247 10,2 C 0,0 km/h (0 Bft)
02.06.2015 03:50 12,0 C 11,9 C 90 % 1017,7 hPa 0,0 mm 0,0 km/h (0 Bft) W-SW 247 10,4 C 0,0 km/h (0 Bft)
02.06.2015 03:55 11,9 C 11,8 C 91 % 1017,7 hPa 0,0 mm 0,0 km/h (0 Bft) W-SW 247 10,5 C 0,0 km/h (0 Bft)
02.06.2015 04:00 12,0 C 11,9 C 90 % 1017,4 hPa 0,0 mm 0,0 km/h (0 Bft) NW 315 10,4 C 0,0 km/h (0 Bft)
02.06.2015 04:05 12,0 C 11,9 C 90 % 1017,4 hPa 0,0 mm 0,0 km/h (0 Bft) N 360 10,4 C 0,0 km/h (0 Bft)
02.06.2015 04:10 12,2 C 12,1 C 91 % 1017,4 hPa 0,0 mm 0,3 km/h (0 Bft) S-SO 157 10,8 C 0,0 km/h (0 Bft)
02.06.2015 04:15 12,2 C 12,1 C 91 % 1017,4 hPa 0,0 mm 0,3 km/h (0 Bft) S-SO 157 10,8 C 0,0 km/h (0 Bft)
02.06.2015 04:20 12,2 C 12,1 C 91 % 1017,5 hPa 0,0 mm 0,0 km/h (0 Bft) S-SO 157 10,8 C 0,0 km/h (0 Bft)
02.06.2015 04:25 12,2 C 12,1 C 91 % 1017,5 hPa 0,0 mm 0,0 km/h (0 Bft) N 360 10,8 C 0,0 km/h (0 Bft)
02.06.2015 04:30 12,2 C 12,1 C 91 % 1017,5 hPa 0,0 mm 0,0 km/h (0 Bft) W 270 10,8 C 0,0 km/h (0 Bft)
02.06.2015 04:35 12,2 C 12,1 C 91 % 1017,5 hPa 0,0 mm 0,0 km/h (0 Bft) S 180 10,8 C 0,0 km/h (0 Bft)
02.06.2015 04:40 12,2 C 12,1 C 91 % 1017,3 hPa 0,0 mm 0,3 km/h (0 Bft) S-SW 202 10,8 C 3,1 km/h (1 Bft)
02.06.2015 04:45 12,2 C 12,1 C 91 % 1017,3 hPa 0,0 mm 0,3 km/h (0 Bft) SO 135 10,8 C 0,0 km/h (0 Bft)
02.06.2015 04:50 12,2 C 12,1 C 91 % 1017,3 hPa 0,0 mm 0,3 km/h (0 Bft) SO 135 10,8 C 0,0 km/h (0 Bft)
02.06.2015 04:55 12,2 C 12,1 C 91 % 1017,3 hPa 0,0 mm 0,0 km/h (0 Bft) O-NO 67 10,8 C 0,0 km/h (0 Bft)
02.06.2015 05:00 12,2 C 12,1 C 91 % 1017,2 hPa 0,0 mm 0,0 km/h (0 Bft) O-NO 67 10,8 C 0,0 km/h (0 Bft)
02.06.2015 05:05 12,2 C 12,2 C 91 % 1017,2 hPa 0,0 mm 0,0 km/h (0 Bft) O-SO 112 10,8 C 0,0 km/h (0 Bft)
02.06.2015 05:10 12,2 C 12,1 C 91 % 1017,2 hPa 0,0 mm 0,0 km/h (0 Bft) N-NO 22 10,8 C 0,0 km/h (0 Bft)
02.06.2015 05:15 12,2 C 12,1 C 91 % 1017,2 hPa 0,0 mm 0,0 km/h (0 Bft) SO 135 10,8 C 0,0 km/h (0 Bft)
02.06.2015 05:20 12,2 C 12,1 C 91 % 1017,3 hPa 0,0 mm 0,0 km/h (0 Bft) SO 135 10,8 C 0,0 km/h (0 Bft)
02.06.2015 05:25 12,2 C 12,1 C 91 % 1017,3 hPa 0,0 mm 0,0 km/h (0 Bft) NW 315 10,8 C 0,0 km/h (0 Bft)
02.06.2015 05:30 12,2 C 12,1 C 91 % 1017,3 hPa 0,0 mm 0,0 km/h (0 Bft) NW 315 10,8 C 0,0 km/h (0 Bft)
02.06.2015 05:35 12,2 C 12,1 C 91 % 1017,3 hPa 0,0 mm 0,0 km/h (0 Bft) NW 315 10,8 C 0,0 km/h (0 Bft)
02.06.2015 05:40 12,1 C 12,0 C 91 % 1017,4 hPa 0,0 mm 0,0 km/h (0 Bft) W 270 10,7 C 0,0 km/h (0 Bft)
02.06.2015 05:45 12,0 C 11,9 C 91 % 1017,4 hPa 0,0 mm 0,3 km/h (0 Bft) W-NW 292 10,6 C 0,0 km/h (0 Bft)
02.06.2015 05:50 11,9 C 11,8 C 91 % 1017,4 hPa 0,0 mm 0,3 km/h (0 Bft) W-SW 247 10,5 C 0,0 km/h (0 Bft)
02.06.2015 05:55 11,9 C 11,8 C 91 % 1017,4 hPa 0,0 mm 0,3 km/h (0 Bft) SW 225 10,5 C 0,0 km/h (0 Bft)
02.06.2015 06:00 11,9 C 11,8 C 91 % 1017,4 hPa 0,0 mm 0,0 km/h (0 Bft) W-SW 247 10,5 C 0,0 km/h (0 Bft)
02.06.2015 06:05 11,9 C 11,8 C 91 % 1017,4 hPa 0,0 mm 0,0 km/h (0 Bft) W-SW 247 10,5 C 0,0 km/h (0 Bft)
02.06.2015 06:10 12,0 C 11,9 C 91 % 1017,4 hPa 0,0 mm 0,0 km/h (0 Bft) W-NW 292 10,6 C 0,0 km/h (0 Bft)
02.06.2015 06:15 12,0 C 12,0 C 87 % 1017,4 hPa 0,0 mm 0,0 km/h (0 Bft) SW 225 9,9 C 0,0 km/h (0 Bft)
02.06.2015 06:20 12,0 C 12,0 C 87 % 1018,0 hPa 0,0 mm 0,0 km/h (0 Bft) SW 225 9,9 C 0,0 km/h (0 Bft)
02.06.2015 06:25 12,1 C 12,0 C 91 % 1018,0 hPa 0,0 mm 0,0 km/h (0 Bft) SW 225 10,7 C 0,0 km/h (0 Bft)
02.06.2015 06:30 12,1 C 12,1 C 87 % 1018,0 hPa 0,0 mm 0,0 km/h (0 Bft) NW 315 10,0 C 0,0 km/h (0 Bft)
02.06.2015 06:35 12,2 C 12,2 C 87 % 1018,0 hPa 0,0 mm 0,0 km/h (0 Bft) W-SW 247 10,1 C 0,0 km/h (0 Bft)
02.06.2015 06:40 12,3 C 12,4 C 87 % 1017,8 hPa 0,0 mm 0,0 km/h (0 Bft) S 180 10,2 C 0,0 km/h (0 Bft)
02.06.2015 06:45 12,4 C 12,5 C 87 % 1017,8 hPa 0,0 mm 0,0 km/h (0 Bft) S 180 10,3 C 0,0 km/h (0 Bft)
02.06.2015 06:50 12,5 C 12,7 C 87 % 1017,8 hPa 0,0 mm 0,0 km/h (0 Bft) S 180 10,4 C 0,0 km/h (0 Bft)
02.06.2015 06:55 12,6 C 12,8 C 87 % 1017,8 hPa 0,0 mm 0,0 km/h (0 Bft) N-NO 22 10,5 C 3,6 km/h (1 Bft)
02.06.2015 07:00 12,7 C 13,0 C 87 % 1017,9 hPa 0,0 mm 0,3 km/h (0 Bft) O-NO 67 10,6 C 0,0 km/h (0 Bft)
02.06.2015 07:05 12,8 C 13,1 C 87 % 1017,9 hPa 0,0 mm 0,5 km/h (0 Bft) NW 315 10,7 C 3,1 km/h (1 Bft)
02.06.2015 07:10 12,9 C 13,2 C 88 % 1017,9 hPa 0,0 mm 0,5 km/h (0 Bft) NO 45 11,0 C 0,0 km/h (0 Bft)
02.06.2015 07:15 12,9 C 13,3 C 88 % 1017,9 hPa 0,0 mm 0,5 km/h (0 Bft) NO 45 11,0 C 0,0 km/h (0 Bft)
02.06.2015 07:20 13,0 C 13,4 C 87 % 1018,0 hPa 0,0 mm 0,3 km/h (0 Bft) O-NO 67 10,9 C 0,0 km/h (0 Bft)
02.06.2015 07:25 13,0 C 13,3 C 87 % 1018,0 hPa 0,0 mm 0,3 km/h (0 Bft) NO 45 10,9 C 0,0 km/h (0 Bft)
02.06.2015 07:30 13,1 C 13,6 C 87 % 1018,0 hPa 0,0 mm 0,0 km/h (0 Bft) O-NO 67 11,0 C 0,0 km/h (0 Bft)
02.06.2015 07:35 13,4 C 14,4 C 87 % 1018,0 hPa 0,0 mm 0,0 km/h (0 Bft) O-SO 112 11,3 C 0,0 km/h (0 Bft)
02.06.2015 07:40 13,6 C 14,9 C 87 % 1017,9 hPa 0,0 mm 0,0 km/h (0 Bft) O 90 11,5 C 0,0 km/h (0 Bft)
02.06.2015 07:45 13,6 C 15,0 C 87 % 1017,9 hPa 0,0 mm 0,0 km/h (0 Bft) O-SO 112 11,5 C 0,0 km/h (0 Bft)
02.06.2015 07:50 14,2 C 16,5 C 87 % 1017,9 hPa 0,0 mm 0,0 km/h (0 Bft) N 360 12,1 C 0,0 km/h (0 Bft)
02.06.2015 07:55 15,1 C 18,7 C 87 % 1017,9 hPa 0,0 mm 0,3 km/h (0 Bft) N 360 13,0 C 3,6 km/h (1 Bft)
02.06.2015 08:00 15,9 C 21,7 C 86 % 1018,2 hPa 0,0 mm 0,3 km/h (0 Bft) SO 135 13,6 C 0,0 km/h (0 Bft)
02.06.2015 08:05 16,4 C 23,5 C 85 % 1018,2 hPa 0,0 mm 0,3 km/h (0 Bft) NW 315 13,9 C 0,0 km/h (0 Bft)
02.06.2015 08:10 16,9 C 24,7 C 84 % 1018,2 hPa 0,0 mm 0,0 km/h (0 Bft) O-SO 112 14,2 C 0,0 km/h (0 Bft)
02.06.2015 08:15 17,3 C 25,5 C 83 % 1018,2 hPa 0,0 mm 0,0 km/h (0 Bft) SO 135 14,4 C 0,0 km/h (0 Bft)
02.06.2015 08:20 17,3 C 24,8 C 82 % 1018,1 hPa 0,0 mm 0,0 km/h (0 Bft) S-SW 202 14,2 C 0,0 km/h (0 Bft)
02.06.2015 08:25 17,2 C 24,3 C 82 % 1018,1 hPa 0,0 mm 0,5 km/h (0 Bft) NW 315 14,1 C 4,7 km/h (1 Bft)
02.06.2015 08:30 17,3 C 23,6 C 81 % 1018,1 hPa 0,0 mm 1,0 km/h (0 Bft) W-SW 247 14,0 C 4,7 km/h (1 Bft)
02.06.2015 08:35 17,5 C 24,0 C 81 % 1018,1 hPa 0,0 mm 0,8 km/h (0 Bft) O-NO 67 14,2 C 0,0 km/h (0 Bft)
02.06.2015 08:40 18,2 C 25,4 C 79 % 1018,4 hPa 0,0 mm 1,0 km/h (0 Bft) SO 135 14,5 C 4,1 km/h (1 Bft)
02.06.2015 08:45 18,4 C 26,3 C 79 % 1018,4 hPa 0,0 mm 1,0 km/h (0 Bft) W-SW 247 14,7 C 0,0 km/h (0 Bft)
02.06.2015 08:50 17,9 C 24,8 C 78 % 1018,4 hPa 0,0 mm 0,5 km/h (0 Bft) NW 315 14,0 C 0,0 km/h (0 Bft)
02.06.2015 08:55 18,0 C 25,0 C 78 % 1018,4 hPa 0,0 mm 0,0 km/h (0 Bft) O 90 14,1 C 0,0 km/h (0 Bft)
02.06.2015 09:00 18,7 C 26,2 C 77 % 1018,8 hPa 0,0 mm 0,0 km/h (0 Bft) O 90 14,6 C 0,0 km/h (0 Bft)
02.06.2015 09:05 18,7 C 26,5 C 76 % 1018,8 hPa 0,0 mm 0,0 km/h (0 Bft) N-NO 22 14,4 C 0,0 km/h (0 Bft)
02.06.2015 09:10 19,1 C 27,2 C 75 % 1018,8 hPa 0,0 mm 0,0 km/h (0 Bft) W 270 14,6 C 0,0 km/h (0 Bft)
02.06.2015 09:15 19,3 C 27,3 C 75 % 1018,8 hPa 0,0 mm 0,0 km/h (0 Bft) NO 45 14,8 C 0,0 km/h (0 Bft)
02.06.2015 09:20 19,3 C 27,6 C 73 % 1018,7 hPa 0,0 mm 0,3 km/h (0 Bft) S-SO 157 14,3 C 4,1 km/h (1 Bft)
02.06.2015 09:25 19,4 C 27,5 C 73 % 1018,7 hPa 0,0 mm 0,5 km/h (0 Bft) O-NO 67 14,4 C 0,0 km/h (0 Bft)
02.06.2015 09:30 19,8 C 27,6 C 72 % 1018,7 hPa 0,0 mm 2,1 km/h (1 Bft) SW 225 14,6 C 7,5 km/h (2 Bft)
02.06.2015 09:35 19,7 C 27,1 C 71 % 1018,7 hPa 0,0 mm 2,6 km/h (1 Bft) NW 315 14,3 C 3,4 km/h (1 Bft)
02.06.2015 09:40 19,6 C 27,3 C 70 % 1019,1 hPa 0,0 mm 2,6 km/h (1 Bft) W-NW 292 14,0 C 3,6 km/h (1 Bft)
02.06.2015 09:45 20,1 C 27,2 C 70 % 1019,1 hPa 0,0 mm 3,1 km/h (1 Bft) NW 315 14,5 C 6,5 km/h (2 Bft)
02.06.2015 09:50 20,4 C 26,8 C 69 % 1019,1 hPa 0,0 mm 4,4 km/h (1 Bft) W-NW 292 14,5 C 0,0 km/h (0 Bft)
02.06.2015 09:55 20,7 C 26,4 C 68 % 1019,1 hPa 0,0 mm 5,7 km/h (1 Bft) W 270 14,6 C 5,7 km/h (1 Bft)
02.06.2015 10:00 20,9 C 26,8 C 67 % 1019,4 hPa 0,0 mm 5,4 km/h (1 Bft) NW 315 14,5 C 11,9 km/h (2 Bft)
02.06.2015 10:05 20,8 C 27,2 C 65 % 1019,4 hPa 0,0 mm 4,4 km/h (1 Bft) W-NW 292 14,0 C 15,5 km/h (3 Bft)
02.06.2015 10:10 21,2 C 27,8 C 65 % 1019,4 hPa 0,0 mm 4,9 km/h (1 Bft) W-SW 247 14,4 C 8,3 km/h (2 Bft)
02.06.2015 10:15 21,4 C 28,0 C 65 % 1019,4 hPa 0,0 mm 5,2 km/h (1 Bft) W-SW 247 14,5 C 4,9 km/h (1 Bft)
02.06.2015 10:20 21,7 C 28,0 C 64 % 1019,4 hPa 0,0 mm 5,2 km/h (1 Bft) W-NW 292 14,6 C 4,4 km/h (1 Bft)
02.06.2015 10:25 21,7 C 27,9 C 63 % 1019,4 hPa 0,0 mm 5,2 km/h (1 Bft) W 270 14,3 C 15,8 km/h (3 Bft)
02.06.2015 10:30 21,8 C 27,6 C 64 % 1019,4 hPa 0,0 mm 5,4 km/h (1 Bft) W-NW 292 14,7 C 9,8 km/h (2 Bft)
02.06.2015 10:35 21,7 C 26,9 C 63 % 1019,4 hPa 0,0 mm 7,3 km/h (2 Bft) W 270 14,3 C 24,3 km/h (4 Bft)
02.06.2015 10:40 21,4 C 26,3 C 62 % 1019,6 hPa 0,0 mm 9,8 km/h (2 Bft) NW 315 13,8 C 9,8 km/h (2 Bft)
02.06.2015 10:45 21,6 C 26,7 C 62 % 1019,6 hPa 0,0 mm 8,3 km/h (2 Bft) W-NW 292 14,0 C 5,4 km/h (1 Bft)
02.06.2015 10:50 21,9 C 27,5 C 62 % 1019,6 hPa 0,0 mm 7,3 km/h (2 Bft) W 270 14,3 C 18,4 km/h (3 Bft)
02.06.2015 10:55 21,6 C 27,0 C 62 % 1019,6 hPa 0,0 mm 7,3 km/h (2 Bft) SW 225 14,0 C 2,8 km/h (1 Bft)
02.06.2015 11:00 21,2 C 25,8 C 63 % 1020,0 hPa 0,0 mm 7,5 km/h (2 Bft) W-NW 292 13,9 C 8,8 km/h (2 Bft)
02.06.2015 11:05 21,1 C 25,0 C 63 % 1020,0 hPa 0,0 mm 8,0 km/h (2 Bft) W-NW 292 13,8 C 8,3 km/h (2 Bft)
02.06.2015 11:10 20,7 C 24,2 C 62 % 1020,0 hPa 0,0 mm 9,3 km/h (2 Bft) W-NW 292 13,2 C 8,3 km/h (2 Bft)
02.06.2015 11:15 20,9 C 24,2 C 62 % 1020,0 hPa 0,0 mm 10,4 km/h (2 Bft) NW 315 13,3 C 17,1 km/h (3 Bft)
02.06.2015 11:20 20,8 C 23,9 C 62 % 1019,9 hPa 0,0 mm 12,4 km/h (3 Bft) NW 315 13,2 C 16,3 km/h (3 Bft)
02.06.2015 11:25 20,9 C 23,9 C 62 % 1019,9 hPa 0,0 mm 12,4 km/h (3 Bft) W 270 13,3 C 11,4 km/h (2 Bft)
02.06.2015 11:30 21,2 C 24,7 C 63 % 1019,9 hPa 0,0 mm 8,8 km/h (2 Bft) W 270 13,9 C 4,7 km/h (1 Bft)
02.06.2015 11:35 21,7 C 25,8 C 62 % 1019,9 hPa 0,0 mm 6,2 km/h (2 Bft) W-SW 247 14,1 C 7,8 km/h (2 Bft)
02.06.2015 11:40 21,6 C 26,5 C 60 % 1020,2 hPa 0,0 mm 6,2 km/h (2 Bft) S 180 13,5 C 5,7 km/h (1 Bft)
02.06.2015 11:45 21,7 C 26,5 C 59 % 1020,2 hPa 0,0 mm 10,1 km/h (2 Bft) NW 315 13,3 C 14,8 km/h (3 Bft)
02.06.2015 11:50 20,9 C 24,7 C 61 % 1020,2 hPa 0,0 mm 9,6 km/h (2 Bft) W-SW 247 13,1 C 7,3 km/h (2 Bft)
02.06.2015 11:55 21,0 C 24,8 C 61 % 1020,2 hPa 0,0 mm 6,7 km/h (2 Bft) SW 225 13,2 C 5,4 km/h (1 Bft)
02.06.2015 12:00 21,6 C 25,7 C 61 % 1020,1 hPa 0,0 mm 4,4 km/h (1 Bft) N-NO 22 13,7 C 4,7 km/h (1 Bft)
02.06.2015 12:05 22,0 C 26,3 C 61 % 1020,1 hPa 0,0 mm 4,1 km/h (1 Bft) NW 315 14,1 C 2,6 km/h (1 Bft)
02.06.2015 12:10 21,8 C 26,7 C 59 % 1020,1 hPa 0,0 mm 6,0 km/h (2 Bft) N-NO 22 13,4 C 0,0 km/h (0 Bft)
02.06.2015 12:15 21,9 C 26,5 C 60 % 1020,1 hPa 0,0 mm 6,7 km/h (2 Bft) NW 315 13,8 C 6,2 km/h (2 Bft)
02.06.2015 12:20 22,3 C 26,2 C 60 % 1020,0 hPa 0,0 mm 6,7 km/h (2 Bft) N-NW 337 14,2 C 7,0 km/h (2 Bft)
02.06.2015 12:25 22,7 C 26,6 C 59 % 1020,0 hPa 0,0 mm 7,8 km/h (2 Bft) SW 225 14,3 C 7,8 km/h (2 Bft)
02.06.2015 12:30 22,5 C 27,4 C 59 % 1020,0 hPa 0,0 mm 6,5 km/h (2 Bft) W-NW 292 14,1 C 11,9 km/h (2 Bft)
02.06.2015 12:35 22,6 C 27,5 C 58 % 1020,0 hPa 0,0 mm 5,4 km/h (1 Bft) W-NW 292 13,9 C 7,0 km/h (2 Bft)
02.06.2015 12:40 22,2 C 28,0 C 57 % 1019,9 hPa 0,0 mm 4,7 km/h (1 Bft) N-NO 22 13,3 C 6,7 km/h (2 Bft)
02.06.2015 12:45 22,5 C 27,9 C 59 % 1019,9 hPa 0,0 mm 4,9 km/h (1 Bft) W-NW 292 14,1 C 8,3 km/h (2 Bft)
02.06.2015 12:50 22,4 C 26,7 C 58 % 1019,9 hPa 0,0 mm 4,9 km/h (1 Bft) W-SW 247 13,7 C 2,8 km/h (1 Bft)
02.06.2015 12:55 21,8 C 25,5 C 59 % 1019,9 hPa 0,0 mm 4,9 km/h (1 Bft) W-NW 292 13,4 C 8,0 km/h (2 Bft)
02.06.2015 13:00 21,3 C 24,0 C 59 % 1019,8 hPa 0,0 mm 5,7 km/h (1 Bft) NW 315 13,0 C 4,7 km/h (1 Bft)
02.06.2015 13:05 21,2 C 23,8 C 59 % 1019,8 hPa 0,0 mm 4,9 km/h (1 Bft) W-SW 247 12,9 C 6,2 km/h (2 Bft)
02.06.2015 13:10 21,3 C 24,0 C 59 % 1019,8 hPa 0,0 mm 1,6 km/h (1 Bft) O-SO 112 13,0 C 0,0 km/h (0 Bft)
02.06.2015 13:15 21,4 C 24,1 C 59 % 1019,8 hPa 0,0 mm 2,3 km/h (1 Bft) N-NO 22 13,0 C 8,3 km/h (2 Bft)
02.06.2015 13:20 21,3 C 23,6 C 59 % 1019,8 hPa 0,0 mm 3,6 km/h (1 Bft) N-NW 337 13,0 C 4,7 km/h (1 Bft)
02.06.2015 13:25 21,8 C 24,1 C 59 % 1019,8 hPa 0,0 mm 4,9 km/h (1 Bft) NW 315 13,4 C 4,9 km/h (1 Bft)
02.06.2015 13:30 21,7 C 24,8 C 58 % 1019,8 hPa 0,0 mm 5,4 km/h (1 Bft) W-NW 292 13,1 C 6,7 km/h (2 Bft)
02.06.2015 13:35 21,5 C 24,2 C 58 % 1019,8 hPa 0,0 mm 6,5 km/h (2 Bft) NW 315 12,9 C 7,3 km/h (2 Bft)
02.06.2015 13:40 21,3 C 23,7 C 58 % 1019,6 hPa 0,0 mm 7,5 km/h (2 Bft) W-SW 247 12,7 C 8,5 km/h (2 Bft)
02.06.2015 13:45 21,5 C 23,9 C 58 % 1019,6 hPa 0,0 mm 6,2 km/h (2 Bft) NW 315 12,9 C 7,0 km/h (2 Bft)
02.06.2015 13:50 21,5 C 24,4 C 58 % 1019,6 hPa 0,0 mm 4,4 km/h (1 Bft) W-SW 247 12,9 C 9,3 km/h (2 Bft)
02.06.2015 13:55 21,3 C 24,2 C 58 % 1019,6 hPa 0,0 mm 3,9 km/h (1 Bft) O-NO 67 12,7 C 2,6 km/h (1 Bft)
02.06.2015 14:00 21,1 C 23,5 C 58 % 1019,6 hPa 0,0 mm 5,4 km/h (1 Bft) W-NW 292 12,5 C 4,9 km/h (1 Bft)
02.06.2015 14:05 21,0 C 23,3 C 58 % 1019,6 hPa 0,0 mm 5,4 km/h (1 Bft) W-NW 292 12,4 C 4,1 km/h (1 Bft)
02.06.2015 14:10 21,3 C 23,8 C 59 % 1019,6 hPa 0,0 mm 3,9 km/h (1 Bft) NO 45 13,0 C 4,1 km/h (1 Bft)
02.06.2015 14:15 21,8 C 25,0 C 58 % 1019,6 hPa 0,0 mm 4,1 km/h (1 Bft) NW 315 13,2 C 5,2 km/h (1 Bft)
02.06.2015 14:20 22,1 C 25,5 C 58 % 1019,6 hPa 0,0 mm 4,9 km/h (1 Bft) NW 315 13,4 C 7,8 km/h (2 Bft)
02.06.2015 14:25 22,5 C 26,1 C 57 % 1019,6 hPa 0,0 mm 5,4 km/h (1 Bft) NW 315 13,5 C 8,8 km/h (2 Bft)
02.06.2015 14:30 22,2 C 26,4 C 57 % 1019,6 hPa 0,0 mm 3,4 km/h (1 Bft) W-SW 247 13,3 C 2,6 km/h (1 Bft)
02.06.2015 14:35 22,3 C 26,5 C 57 % 1019,6 hPa 0,0 mm 2,3 km/h (1 Bft) SW 225 13,4 C 2,6 km/h (1 Bft)
02.06.2015 14:40 22,6 C 27,0 C 56 % 1019,2 hPa 0,0 mm 3,4 km/h (1 Bft) W 270 13,4 C 4,4 km/h (1 Bft)
02.06.2015 14:45 22,7 C 27,3 C 56 % 1019,2 hPa 0,0 mm 2,6 km/h (1 Bft) S-SO 157 13,5 C 0,0 km/h (0 Bft)
02.06.2015 14:50 23,6 C 29,3 C 55 % 1019,2 hPa 0,0 mm 3,1 km/h (1 Bft) NW 315 14,0 C 14,8 km/h (3 Bft)
02.06.2015 14:55 23,4 C 28,7 C 53 % 1019,2 hPa 0,0 mm 6,7 km/h (2 Bft) W 270 13,3 C 19,4 km/h (3 Bft)
02.06.2015 15:00 22,9 C 26,9 C 55 % 1019,3 hPa 0,0 mm 8,8 km/h (2 Bft) W-SW 247 13,4 C 5,7 km/h (1 Bft)
02.06.2015 15:05 23,0 C 26,9 C 54 % 1019,3 hPa 0,0 mm 6,0 km/h (2 Bft) N-NO 22 13,2 C 5,4 km/h (1 Bft)
02.06.2015 15:10 23,7 C 28,7 C 54 % 1019,3 hPa 0,0 mm 2,3 km/h (1 Bft) W-SW 247 13,8 C 0,0 km/h (0 Bft)
02.06.2015 15:15 23,9 C 29,0 C 52 % 1019,3 hPa 0,0 mm 3,9 km/h (1 Bft) N 360 13,4 C 8,3 km/h (2 Bft)
02.06.2015 15:20 23,9 C 28,5 C 52 % 1019,1 hPa 0,0 mm 9,1 km/h (2 Bft) NW 315 13,4 C 10,6 km/h (2 Bft)
02.06.2015 15:25 23,7 C 27,7 C 52 % 1019,1 hPa 0,0 mm 11,4 km/h (2 Bft) N-NW 337 13,2 C 8,0 km/h (2 Bft)
02.06.2015 15:30 23,9 C 27,8 C 53 % 1019,1 hPa 0,0 mm 10,6 km/h (2 Bft) SW 225 13,7 C 10,6 km/h (2 Bft)
02.06.2015 15:35 23,8 C 27,8 C 52 % 1019,1 hPa 0,0 mm 8,5 km/h (2 Bft) W-NW 292 13,3 C 13,2 km/h (3 Bft)
02.06.2015 15:40 23,9 C 27,4 C 52 % 1019,1 hPa 0,0 mm 7,5 km/h (2 Bft) N-NW 337 13,4 C 15,0 km/h (3 Bft)
02.06.2015 15:45 23,7 C 27,5 C 52 % 1019,1 hPa 0,0 mm 7,8 km/h (2 Bft) N 360 13,2 C 8,3 km/h (2 Bft)
02.06.2015 15:50 23,5 C 28,0 C 52 % 1019,1 hPa 0,0 mm 5,7 km/h (1 Bft) N-NO 22 13,1 C 3,1 km/h (1 Bft)
02.06.2015 15:55 23,3 C 28,0 C 51 % 1019,1 hPa 0,0 mm 6,0 km/h (2 Bft) N 360 12,6 C 11,1 km/h (2 Bft)
02.06.2015 16:00 23,3 C 28,6 C 52 % 1018,9 hPa 0,0 mm 4,4 km/h (1 Bft) S 180 12,9 C 0,0 km/h (0 Bft)
02.06.2015 16:05 23,1 C 29,0 C 52 % 1018,9 hPa 0,0 mm 2,1 km/h (1 Bft) O-SO 112 12,7 C 0,0 km/h (0 Bft)
02.06.2015 16:10 22,9 C 29,6 C 54 % 1018,9 hPa 0,0 mm 2,3 km/h (1 Bft) N-NO 22 13,1 C 4,1 km/h (1 Bft)
02.06.2015 16:15 22,7 C 29,6 C 54 % 1018,9 hPa 0,0 mm 2,8 km/h (1 Bft) NO 45 12,9 C 0,0 km/h (0 Bft)
02.06.2015 16:20 22,6 C 30,4 C 55 % 1018,8 hPa 0,0 mm 2,6 km/h (1 Bft) S 180 13,1 C 11,4 km/h (2 Bft)
02.06.2015 16:25 22,7 C 30,7 C 55 % 1018,8 hPa 0,0 mm 2,6 km/h (1 Bft) W 270 13,2 C 4,9 km/h (1 Bft)
02.06.2015 16:30 22,9 C 30,9 C 55 % 1018,8 hPa 0,0 mm 4,7 km/h (1 Bft) S-SW 202 13,4 C 11,1 km/h (2 Bft)
02.06.2015 16:35 23,0 C 30,3 C 54 % 1018,8 hPa 0,0 mm 6,7 km/h (2 Bft) W-NW 292 13,2 C 10,1 km/h (2 Bft)
02.06.2015 16:40 23,0 C 30,0 C 54 % 1018,9 hPa 0,0 mm 6,2 km/h (2 Bft) S-SW 202 13,2 C 4,4 km/h (1 Bft)
02.06.2015 16:45 22,9 C 29,5 C 55 % 1018,9 hPa 0,0 mm 4,9 km/h (1 Bft) W 270 13,4 C 4,7 km/h (1 Bft)
02.06.2015 16:50 22,9 C 29,7 C 55 % 1018,9 hPa 0,0 mm 4,9 km/h (1 Bft) W 270 13,4 C 6,5 km/h (2 Bft)
02.06.2015 16:55 22,7 C 29,8 C 55 % 1018,9 hPa 0,0 mm 4,7 km/h (1 Bft) W 270 13,2 C 4,1 km/h (1 Bft)
02.06.2015 17:00 22,6 C 28,6 C 54 % 1019,2 hPa 0,0 mm 5,4 km/h (1 Bft) N-NO 22 12,8 C 6,5 km/h (2 Bft)
02.06.2015 17:05 22,6 C 27,3 C 54 % 1019,2 hPa 0,0 mm 4,1 km/h (1 Bft) O-SO 112 12,8 C 0,0 km/h (0 Bft)
02.06.2015 17:10 22,5 C 26,0 C 55 % 1019,2 hPa 0,0 mm 1,3 km/h (1 Bft) W-NW 292 13,0 C 2,6 km/h (1 Bft)
02.06.2015 17:15 22,5 C 25,6 C 55 % 1019,2 hPa 0,0 mm 1,3 km/h (1 Bft) N-NW 337 13,0 C 15,5 km/h (3 Bft)
02.06.2015 17:20 22,5 C 24,8 C 55 % 1018,9 hPa 0,0 mm 3,6 km/h (1 Bft) N-NW 337 13,0 C 0,0 km/h (0 Bft)
02.06.2015 17:25 22,5 C 24,4 C 55 % 1018,9 hPa 0,0 mm 4,9 km/h (1 Bft) N-NW 337 13,0 C 5,4 km/h (1 Bft)
02.06.2015 17:30 22,5 C 24,0 C 55 % 1018,9 hPa 0,0 mm 6,0 km/h (2 Bft) W-NW 292 13,0 C 15,3 km/h (3 Bft)
02.06.2015 17:35 22,5 C 23,8 C 55 % 1018,9 hPa 0,0 mm 6,2 km/h (2 Bft) NW 315 13,0 C 12,2 km/h (2 Bft)
02.06.2015 17:40 22,4 C 23,6 C 55 % 1018,8 hPa 0,0 mm 5,4 km/h (1 Bft) SW 225 12,9 C 5,7 km/h (1 Bft)
02.06.2015 17:45 22,4 C 23,5 C 55 % 1018,8 hPa 0,0 mm 5,4 km/h (1 Bft) NW 315 12,9 C 7,8 km/h (2 Bft)
02.06.2015 17:50 22,4 C 23,5 C 56 % 1018,8 hPa 0,0 mm 6,0 km/h (2 Bft) NO 45 13,2 C 0,0 km/h (0 Bft)
02.06.2015 17:55 22,4 C 23,5 C 56 % 1018,8 hPa 0,0 mm 6,2 km/h (2 Bft) NW 315 13,2 C 3,1 km/h (1 Bft)
02.06.2015 18:00 22,4 C 23,4 C 55 % 1018,7 hPa 0,0 mm 3,6 km/h (1 Bft) NO 45 12,9 C 5,4 km/h (1 Bft)
02.06.2015 18:05 22,3 C 23,3 C 55 % 1018,7 hPa 0,0 mm 3,1 km/h (1 Bft) O-NO 67 12,8 C 0,0 km/h (0 Bft)
02.06.2015 18:10 22,3 C 23,5 C 55 % 1018,7 hPa 0,0 mm 2,3 km/h (1 Bft) W 270 12,8 C 11,9 km/h (2 Bft)
02.06.2015 18:15 22,4 C 23,5 C 56 % 1018,7 hPa 0,0 mm 3,9 km/h (1 Bft) NW 315 13,2 C 8,0 km/h (2 Bft)
02.06.2015 18:20 22,4 C 23,5 C 55 % 1018,7 hPa 0,0 mm 5,4 km/h (1 Bft) NO 45 12,9 C 3,4 km/h (1 Bft)
02.06.2015 18:25 22,5 C 23,5 C 55 % 1018,7 hPa 0,0 mm 3,6 km/h (1 Bft) W-NW 292 13,0 C 0,0 km/h (0 Bft)
02.06.2015 18:30 22,4 C 23,8 C 55 % 1018,7 hPa 0,0 mm 2,1 km/h (1 Bft) W 270 12,9 C 0,0 km/h (0 Bft)
02.06.2015 18:35 22,4 C 25,0 C 56 % 1018,7 hPa 0,0 mm 2,8 km/h (1 Bft) NW 315 13,2 C 8,3 km/h (2 Bft)
02.06.2015 18:40 22,6 C 26,3 C 55 % 1018,8 hPa 0,0 mm 5,4 km/h (1 Bft) NW 315 13,1 C 3,6 km/h (1 Bft)
02.06.2015 18:45 22,6 C 27,1 C 55 % 1018,8 hPa 0,0 mm 5,7 km/h (1 Bft) W-SW 247 13,1 C 0,0 km/h (0 Bft)
02.06.2015 18:50 22,6 C 27,8 C 55 % 1018,8 hPa 0,0 mm 5,2 km/h (1 Bft) W-SW 247 13,1 C 3,4 km/h (1 Bft)
02.06.2015 18:55 22,6 C 28,0 C 56 % 1018,8 hPa 0,0 mm 4,9 km/h (1 Bft) NW 315 13,4 C 9,3 km/h (2 Bft)
02.06.2015 19:00 22,4 C 27,3 C 56 % 1018,7 hPa 0,0 mm 5,4 km/h (1 Bft) W-SW 247 13,2 C 0,0 km/h (0 Bft)
02.06.2015 19:05 21,9 C 26,3 C 56 % 1018,7 hPa 0,0 mm 5,2 km/h (1 Bft) W-SW 247 12,7 C 0,0 km/h (0 Bft)
02.06.2015 19:10 21,7 C 25,4 C 56 % 1018,7 hPa 0,0 mm 2,8 km/h (1 Bft) W-NW 292 12,5 C 2,6 km/h (1 Bft)
02.06.2015 19:15 21,7 C 25,4 C 57 % 1018,7 hPa 0,0 mm 1,8 km/h (1 Bft) NW 315 12,8 C 4,1 km/h (1 Bft)
02.06.2015 19:20 21,6 C 25,1 C 57 % 1018,8 hPa 0,0 mm 0,8 km/h (0 Bft) W 270 12,7 C 0,0 km/h (0 Bft)
02.06.2015 19:25 21,7 C 25,8 C 58 % 1018,8 hPa 0,0 mm 0,5 km/h (0 Bft) S-SW 202 13,1 C 0,0 km/h (0 Bft)
02.06.2015 19:30 21,7 C 26,9 C 59 % 1018,8 hPa 0,0 mm 0,5 km/h (0 Bft) NW 315 13,3 C 0,0 km/h (0 Bft)
02.06.2015 19:35 21,8 C 26,9 C 58 % 1018,8 hPa 0,0 mm 2,1 km/h (1 Bft) W-NW 292 13,2 C 3,4 km/h (1 Bft)
02.06.2015 19:40 22,1 C 26,7 C 58 % 1018,8 hPa 0,0 mm 2,6 km/h (1 Bft) NW 315 13,4 C 3,6 km/h (1 Bft)
02.06.2015 19:45 22,2 C 26,5 C 58 % 1018,8 hPa 0,0 mm 2,6 km/h (1 Bft) NW 315 13,5 C 2,6 km/h (1 Bft)
02.06.2015 19:50 22,2 C 26,2 C 58 % 1018,8 hPa 0,0 mm 2,3 km/h (1 Bft) W-NW 292 13,5 C 0,0 km/h (0 Bft)
02.06.2015 19:55 22,0 C 26,1 C 58 % 1018,8 hPa 0,0 mm 1,8 km/h (1 Bft) W-NW 292 13,3 C 2,6 km/h (1 Bft)
02.06.2015 20:00 21,8 C 25,6 C 58 % 1018,9 hPa 0,0 mm 1,0 km/h (0 Bft) W 270 13,2 C 0,0 km/h (0 Bft)
02.06.2015 20:05 21,6 C 25,4 C 58 % 1018,9 hPa 0,0 mm 0,8 km/h (0 Bft) NW 315 13,0 C 0,0 km/h (0 Bft)
02.06.2015 20:10 21,3 C 24,7 C 59 % 1018,9 hPa 0,0 mm 0,5 km/h (0 Bft) W-NW 292 13,0 C 0,0 km/h (0 Bft)
02.06.2015 20:15 21,2 C 24,7 C 59 % 1018,9 hPa 0,0 mm 0,3 km/h (0 Bft) W-NW 292 12,9 C 0,0 km/h (0 Bft)
02.06.2015 20:20 21,0 C 24,7 C 59 % 1019,0 hPa 0,0 mm 0,0 km/h (0 Bft) W 270 12,7 C 0,0 km/h (0 Bft)
02.06.2015 20:25 20,8 C 24,3 C 59 % 1019,0 hPa 0,0 mm 0,0 km/h (0 Bft) W 270 12,5 C 0,0 km/h (0 Bft)
02.06.2015 20:30 20,4 C 23,6 C 60 % 1019,0 hPa 0,0 mm 0,0 km/h (0 Bft) W 270 12,4 C 0,0 km/h (0 Bft)
02.06.2015 20:35 20,1 C 23,1 C 62 % 1019,0 hPa 0,0 mm 0,0 km/h (0 Bft) SW 225 12,6 C 0,0 km/h (0 Bft)
02.06.2015 20:40 19,5 C 22,6 C 66 % 1019,2 hPa 0,0 mm 0,0 km/h (0 Bft) S 180 13,0 C 0,0 km/h (0 Bft)
02.06.2015 20:45 19,0 C 21,8 C 67 % 1019,2 hPa 0,0 mm 0,3 km/h (0 Bft) S-SO 157 12,7 C 0,0 km/h (0 Bft)
02.06.2015 20:50 18,8 C 21,1 C 68 % 1019,2 hPa 0,0 mm 0,3 km/h (0 Bft) S-SW 202 12,8 C 3,1 km/h (1 Bft)
02.06.2015 20:55 18,5 C 20,7 C 69 % 1019,2 hPa 0,0 mm 0,5 km/h (0 Bft) S-SO 157 12,7 C 0,0 km/h (0 Bft)
02.06.2015 21:00 18,1 C 20,2 C 70 % 1019,4 hPa 0,0 mm 1,0 km/h (0 Bft) S-SO 157 12,5 C 3,1 km/h (1 Bft)
02.06.2015 21:05 17,8 C 19,6 C 70 % 1019,4 hPa 0,0 mm 0,8 km/h (0 Bft) SO 135 12,3 C 0,0 km/h (0 Bft)
02.06.2015 21:10 17,5 C 18,6 C 71 % 1019,4 hPa 0,0 mm 0,3 km/h (0 Bft) SO 135 12,2 C 0,0 km/h (0 Bft)
02.06.2015 21:15 17,3 C 18,2 C 71 % 1019,4 hPa 0,0 mm 0,3 km/h (0 Bft) S-SO 157 12,0 C 2,8 km/h (1 Bft)
02.06.2015 21:20 16,9 C 18,0 C 72 % 1019,6 hPa 0,0 mm 0,3 km/h (0 Bft) S-SO 157 11,8 C 0,0 km/h (0 Bft)
02.06.2015 21:25 16,8 C 17,8 C 73 % 1019,6 hPa 0,0 mm 0,5 km/h (0 Bft) S-SO 157 11,9 C 0,0 km/h (0 Bft)
02.06.2015 21:30 16,7 C 17,4 C 74 % 1019,6 hPa 0,0 mm 0,8 km/h (0 Bft) S-SO 157 12,0 C 0,0 km/h (0 Bft)
02.06.2015 21:35 16,7 C 17,2 C 74 % 1019,6 hPa 0,0 mm 0,8 km/h (0 Bft) W-SW 247 12,0 C 6,0 km/h (2 Bft)
02.06.2015 21:40 16,7 C 17,0 C 74 % 1019,7 hPa 0,0 mm 0,5 km/h (0 Bft) S-SO 157 12,0 C 0,0 km/h (0 Bft)
02.06.2015 21:45 16,6 C 17,0 C 74 % 1019,7 hPa 0,0 mm 0,8 km/h (0 Bft) S 180 11,9 C 3,1 km/h (1 Bft)
02.06.2015 21:50 16,4 C 16,8 C 74 % 1019,7 hPa 0,0 mm 1,3 km/h (1 Bft) SO 135 11,8 C 3,9 km/h (1 Bft)
02.06.2015 21:55 16,4 C 16,8 C 75 % 1019,7 hPa 0,0 mm 1,0 km/h (0 Bft) S-SO 157 12,0 C 0,0 km/h (0 Bft)
02.06.2015 22:00 16,3 C 16,5 C 75 % 1019,9 hPa 0,0 mm 0,8 km/h (0 Bft) SO 135 11,9 C 0,0 km/h (0 Bft)
02.06.2015 22:05 16,2 C 16,4 C 75 % 1019,9 hPa 0,0 mm 0,5 km/h (0 Bft) S-SO 157 11,8 C 0,0 km/h (0 Bft)
02.06.2015 22:10 16,1 C 16,2 C 75 % 1019,9 hPa 0,0 mm 0,3 km/h (0 Bft) S 180 11,7 C 0,0 km/h (0 Bft)
02.06.2015 22:15 16,1 C 16,3 C 75 % 1019,9 hPa 0,0 mm 1,3 km/h (1 Bft) S 180 11,7 C 3,1 km/h (1 Bft)
02.06.2015 22:20 16,1 C 16,3 C 76 % 1019,9 hPa 0,0 mm 2,8 km/h (1 Bft) S 180 11,9 C 4,4 km/h (1 Bft)
02.06.2015 22:25 15,7 C 16,0 C 76 % 1019,9 hPa 0,0 mm 2,8 km/h (1 Bft) S-SO 157 11,5 C 3,1 km/h (1 Bft)
02.06.2015 22:30 15,6 C 15,8 C 77 % 1019,9 hPa 0,0 mm 1,8 km/h (1 Bft) S-SO 157 11,6 C 2,6 km/h (1 Bft)
02.06.2015 22:35 15,5 C 15,6 C 77 % 1019,9 hPa 0,0 mm 1,3 km/h (1 Bft) S-SO 157 11,5 C 3,4 km/h (1 Bft)
02.06.2015 22:40 15,1 C 15,4 C 77 % 1020,1 hPa 0,0 mm 0,5 km/h (0 Bft) S 180 11,1 C 0,0 km/h (0 Bft)
02.06.2015 22:45 15,1 C 15,3 C 78 % 1020,1 hPa 0,0 mm 0,3 km/h (0 Bft) S 180 11,3 C 0,0 km/h (0 Bft)
02.06.2015 22:50 15,0 C 15,1 C 78 % 1020,1 hPa 0,0 mm 0,5 km/h (0 Bft) S-SO 157 11,2 C 3,1 km/h (1 Bft)
02.06.2015 22:55 15,0 C 15,0 C 78 % 1020,1 hPa 0,0 mm 0,5 km/h (0 Bft) S 180 11,2 C 0,0 km/h (0 Bft)
02.06.2015 23:00 15,0 C 14,9 C 78 % 1020,1 hPa 0,0 mm 0,8 km/h (0 Bft) S 180 11,2 C 2,8 km/h (1 Bft)
02.06.2015 23:05 15,1 C 15,0 C 78 % 1020,1 hPa 0,0 mm 0,5 km/h (0 Bft) S 180 11,3 C 0,0 km/h (0 Bft)
02.06.2015 23:10 15,3 C 15,1 C 79 % 1020,1 hPa 0,0 mm 0,3 km/h (0 Bft) SO 135 11,7 C 0,0 km/h (0 Bft)
02.06.2015 23:15 15,3 C 15,1 C 79 % 1020,1 hPa 0,0 mm 0,0 km/h (0 Bft) SO 135 11,7 C 0,0 km/h (0 Bft)
02.06.2015 23:20 15,1 C 15,0 C 79 % 1020,1 hPa 0,0 mm 0,0 km/h (0 Bft) S-SO 157 11,5 C 0,0 km/h (0 Bft)
02.06.2015 23:25 15,0 C 14,9 C 79 % 1020,1 hPa 0,0 mm 0,0 km/h (0 Bft) S-SO 157 11,4 C 0,0 km/h (0 Bft)
02.06.2015 23:30 15,0 C 14,8 C 79 % 1020,1 hPa 0,0 mm 0,0 km/h (0 Bft) S-SW 202 11,4 C 0,0 km/h (0 Bft)
02.06.2015 23:35 14,9 C 14,7 C 79 % 1020,1 hPa 0,0 mm 0,0 km/h (0 Bft) S-SO 157 11,3 C 0,0 km/h (0 Bft)
02.06.2015 23:40 14,7 C 14,5 C 79 % 1020,1 hPa 0,0 mm 0,0 km/h (0 Bft) SW 225 11,1 C 0,0 km/h (0 Bft)
02.06.2015 23:45 14,5 C 14,3 C 79 % 1020,1 hPa 0,0 mm 0,0 km/h (0 Bft) S-SW 202 10,9 C 0,0 km/h (0 Bft)
02.06.2015 23:50 14,6 C 14,4 C 79 % 1020,1 hPa 0,0 mm 0,0 km/h (0 Bft) S-SO 157 11,0 C 0,0 km/h (0 Bft)
02.06.2015 23:55 14,4 C 14,2 C 79 % 1020,1 hPa 0,0 mm 0,0 km/h (0 Bft) W-SW 247 10,8 C 0,0 km/h (0 Bft)
_ Min-Zeit 03:45 03:45 15:55 05:15 - 23:55 - - 06:20 23:55
Minimum _ 11,8 C 11,7 C 51 % 1017,2 hPa - 0,0 km/h (0 Bft) - - 9,9 C 0,0 km/h (0 Bft)
_ Max-Zeit 15:40 16:30 06:25 11:55 03:35 11:25 - - 09:15 10:35
Maximum _ 23,9 C 30,9 C 91 % 1020,2 hPa 0,7 mm 12,4 km/h
W (3 Bft)
- - 14,8 C 24,3 km/h
W (4 Bft)
Durchschnitt _ 17,7 C 20,2 C 72 % 1018,8 hPa #2,1 mm 2,6 km/h (1 Bft) NW - 12,3 C 3,3 km/h (1 Bft)